User: anonymous   Login
Location: Waldport
(44.4270°N, 124.0680°W)
Time: 13:51:58
(UTC-08:00)
Language:

Cosmos 1570 Rocket - Orbit

View from above orbital plane
View from above orbital plane
View from above satellite
View from above satellite

Ground track
Ground track

The orbit data is extracted from the following two-line orbital elements,

1 15032U 84056B   14330.53545682  .00000285  00000-0  11013-3 0  5465
2 15032 074.0716 342.7064 0017372 016.0588 152.6745 14.34457363593032
Epoch (UTC): 26 November 2014 12:51:03
Eccentricity: 0.0017372
inclination: 74.0716°
perigee height: 764 km
apogee height: 789 km
right ascension of ascending node: 342.7064°
argument of perigee: 16.0588°
revolutions per day: 14.34457363
mean anomaly at epoch: 152.6745°
orbit number at epoch: 59303

The dashed part of the orbit path shows where the satellite is in the earth's shadow,  

DLR